Location: Zagreb
(45.8000°N, 16.0000°E)
Time: 01:07:30
(UTC+01:00)

NUDT-PHONESAT - Pass Details

Date: 03 November 2020
Orbit: 481 x 500 km, 97.4° (Epoch: 30 November)

Event Time Altitude Azimuth Distance (km) Brightness Sun altitude
Rises 17:06:31 0° 146° (SE) 2,588 ? -5.3°
Reaches altitude 10° 17:08:42 10° 137° (SE) 1,709 ? -5.7°
Maximum altitude 17:12:04 35° 71° (ENE) 833 ? -6.3°
Drops below altitude 10° 17:15:28 10° 5° (N) 1,719 ? -6.8°
Sets 17:17:40 0° 356° (N) 2,606 ? -7.2°
